www.pogodaiklimat.ru

Погода и климат >> Архив погоды >> Россия >> Красноярский край >> Вельмо


ПОГОДА в Вельмо

  • Прогноз погоды в Вельмо
  • Монитор погоды в Вельмо

АРХИВ ПОГОДЫ в Вельмо

Время (UTC), дата Ветер
(напр.,м/с)
 
Видим.   Явления Облачность Т
(С)
Тd
(С)
f
(%)
Тe
(С)
Тes
(С)
Комфортность P
(гПа)
Po
(гПа)
Тmin
(С)
Tmax
(С)
R
(мм)
R24
(мм)
S
(см)
09 14.01 штиль 0 н/о {снег} 10/0 2000 м
[As op]
-19.3 -21.2 85 -19 -19 1026.8 1010.1
12 14.01 ЮВ 1 н/о слаб. снег 10/0 2000 м
[As op]
-18.0 -19.9 85 -21 -21 1025.6 1009.0 -18.0 3
15 14.01 штиль 0 н/о слаб. снег 10/0 2000 м
[As op]
-18.6 -20.5 85 -19 -19 1026.6 1010.0
18 14.01 штиль 0 н/о {снег} 10/0 2000 м
[As op]
-17.5 -19.4 85 -18 -18 1026.0 1009.4
21 14.01 штиль 0 н/о 10/0 2000 м
[As op]
-17.0 -18.9 85 -17 -17 1025.4 1008.9
00 15.01 С 1 н/о 3/0
[Ci fib]
-19.4 -20.6 90 -22 -22 1024.8 1008.1 -19.4 0.5 76
03 15.01 штиль 0 н/о 9/0
[Cc]
-24.9 -26.8 84 -25 -25 1023.6 1006.6 -25.3
06 15.01 штиль 0 50 км 10/0
[Cs]
-19.9 -21.8 85 -20 -19 1021.7 1005.1
09 15.01 С 1 н/о 9/0
[Ci fib]
-20.3 -22.2 85 -23 -23 1019.5 1002.9
12 15.01 С 1 н/о 9/0
[Ci fib]
-22.2 -24.1 84 -25 -25 1016.3 999.6 -15.7
15 15.01 С 1 н/о 10/0
[Cs]
-18.3 -20.2 85 -21 -21 1014.0 997.6
18 15.01 СЗ 1 н/о 10/0
[As trans]
-17.3 -19.2 85 -20 -20 1012.8 996.5
21 15.01 штиль 0 н/о 10/0
[As trans]
-15.8 -17.7 85 -16 -16 1012.5 996.3
00 16.01 штиль 0 н/о слаб. снег 10/0
[Cs]
-17.9 -19.1 90 -18 -18 1012.7 996.3 -22.2 0.3 76
03 16.01 штиль 0 н/о слаб. снег 10/0
[Cs]
-21.3 -23.2 85 -21 -21 1015.9 999.2
06 16.01 штиль 0 10 км слаб. ливневой снег 10/5 1000 м
[Cb cap Cs]
-20.9 -22.8 85 -21 -21 1017.6 1001.0
09 16.01 штиль 0 20 км в посл. час ливневой снег 9/3 1000 м
[Cb cap Ac As]
-21.0 -22.9 85 -21 -21 1019.0 1002.4
12 16.01 штиль 0 н/о слаб. снег 10/0
[Cs]
-21.7 -23.5 85 -22 -22 1020.6 1003.8 -17.4 0.6
15 16.01 штиль 0 н/о слаб. снег 9/0 2000 м
[Ac As]
-21.2 -23.1 85 -21 -21 1020.9 1004.2
18 16.01 штиль 0 н/о слаб. ливневой снег 10/8 1000 м
[Cb cap As trans]
-20.2 -22.1 85 -20 -20 1021.0 1004.4
21 16.01 штиль 0 н/о слаб. ливневой снег 10/10 1000 м
[Cb cap]
-18.9 -20.8 85 -19 -19 1020.9 1004.4
00 17.01 штиль 0 н/о в посл. час ливневой снег 9/6 1000 м
[Cb cap Ci fib]
-19.7 -21.6 85 -20 -20 1021.4 1004.8 -21.9 1 81
03 17.01 штиль 0 н/о слаб. ливневой снег 10/10 1000 м
[Cb cap]
-19.4 -21.2 86 -19 -19 1021.2 1004.6
06 17.01 штиль 0 10 км слаб. ливневой снег 10/3 1000 м
[Cb cap As trans]
-19.1 -21.0 85 -19 -19 1022.3 1005.7
09 17.01 штиль 0 10 км слаб. ливневой снег 10/4 1000 м
[Cb cap As op]
-17.1 -19.0 85 -17 -17 1022.8 1006.3
12 17.01 В 1 н/о слаб. ливневой снег 10/3 1000 м
[Cb cap As trans]
-18.6 -19.8 90 -21 -21 1025.9 1009.3 -15.9 1
15 17.01 СЗ 2 н/о слаб. ливневой снег 9/9 1000 м
[Cb cap]
-14.0 -16.0 85 -19 -19 1028.4 1012.1
18 17.01 З 2 н/о слаб. ливневой снег 10/8 1000 м
[Cb cap Cs]
-15.7 -17.6 85 -21 -21 1030.0 1013.4
21 17.01 штиль 0 н/о слаб. ливневой снег 9/8 1000 м
[Cb cap Ci fib]
-16.0 -17.9 85 -16 -16 1031.2 1014.6
00 18.01 штиль 0 н/о слаб. ливневой снег 10/10 1000 м
[Cb cap]
-14.8 -16.1 90 -15 -15 1031.8 1015.4 -19.2 0.5 81
03 18.01 С 1 н/о слаб. ливневой снег 10/10 1000 м
[Cb cap]
-13.7 -15.0 90 -16 -16 1031.8 1015.4
06 18.01 штиль 0 20 км {ливн. осадки} 10/0
[As op]
-12.9 -14.2 90 -13 -13 1031.2 1014.9
09 18.01 С 1 20 км 10/3 1000 м
[Cb cap As op]
-10.8 -12.1 90 -13 -13 1030.2 1014.0
12 18.01 С 1 н/о 10/6 1000 м
[Cb cap As op]
-10.7 -12.0 90 -13 -13 1027.8 1011.7 -10.7 0.0
15 18.01 В 1 н/о 10/0
[As op]
-11.5 -12.8 90 -14 -14 1024.8 1008.6
18 18.01 В 2 н/о 10/0 2000 м
[As trans]
-13.0 -14.3 90 -18 -18 1021.9 1005.8
21 18.01 С 1 н/о 10/0 2000 м
[As trans]
-12.0 -13.3 90 -14 -14 1020.0 1003.9
00 19.01 штиль 0 н/о 10/0 2000 м
[As op]
-14.5 -15.8 90 -15 -15 1018.3 1002.1 -14.5 81
03 19.01 штиль 0 н/о в посл. час ливневой снег 10/6 1000 м
[Cb cap As op]
-12.6 -13.9 90 -13 -13 1017.0 1000.9
06 19.01 штиль 0 20 км {ливн. осадки} 10/5 1000 м
[Cb cap As op]
-11.3 -12.6 90 -11 -11 1014.6 998.6
09 19.01 С 1 20 км в посл. час снег 10/10 1000 м
[Sc]
-9.4 -11.0 88 -12 -12 1011.9 996.1
12 19.01 З 1 н/о {снег} 10/10 1000 м
[Sc]
-9.6 -11.2 88 -12 -12 1011.8 996.0 -8.6 0.7
15 19.01 СЗ 1 н/о {снег} 10/0 2000 м
[As op]
-8.2 -9.6 90 -11 -11 1011.9 996.2
18 19.01 З 2 н/о {снег} 10/0 2000 м
[As op]
-7.0 -9.1 85 -11 -11 1013.5 997.7
21 19.01 З 3 н/о 10/0 2000 м
[As trans]
-7.5 -10.1 82 -13 -13 1013.9 998.1
00 20.01 З 3 н/о {метель} 10/0 2000 м
[As trans]
-8.3 -11.1 80 -14 -14 1014.5 998.7 -9.6 0.0 79
03 20.01 С 1 н/о 9/0 2000 м
[Ac trans Ci fib]
-12.5 -13.8 90 -15 -15 1014.6 998.5 -12.5
06 20.01 штиль 0 20 км 10/0 2000 м
[As op]
-12.2 -13.5 90 -12 -12 1011.7 995.7
09 20.01 штиль 0 10 км слаб. ливневой снег 10/8 1000 м
[Cb cap As op]
-10.5 -11.8 90 -11 -11 1009.9 994.0
12 20.01 штиль 0 н/о слаб. ливневой снег 10/8 1000 м
[Cb cap As trans]
-9.8 -11.0 91 -10 -10 1009.9 994.0 -9.8 0.6
15 20.01 З 3 н/о слаб. ливневой снег 10/8 1000 м
[Cb cap As trans]
-9.1 -10.7 88 -15 -15 1010.6 994.8
18 20.01 З 5 н/о позёмок {ливн. осадки} 9/6 1000 м
[Cb calv Ci fib]
-8.7 -11.1 83 -16 -16 1013.0 997.3
21 20.01 З 2 н/о {ливн. осадки, метель} 9/5 1000 м
[Cb calv Ci fib]
-10.3 -12.3 85 -15 -15 1016.7 1000.8
00 21.01 С 1 н/о {ливн. осадки, метель} 9/0
[Ci fib]
-18.3 -19.5 90 -21 -21 1020.0 1003.5 -18.3 1 84
03 21.01 С 2 н/о 4/0
[Ci fib]
-21.6 -22.8 90 -28 -28 1022.7 1006.0
06 21.01 штиль 0 50 км 10/0
[Cs]
-21.2 -22.4 90 -21 -21 1022.7 1006.0

 

Местоположение метеостанции Вельмо (Красноярский край, Россия): широта 61.02 долгота 93.42 высота над уровнем моря 122 м.

В архиве по умолчанию представлена погода в Вельмо за последнюю неделю. Архивные данные за месяц целиком и за предыдущие месяцы, начиная с января 2011 года, Вы можете получить, выбрав интересующий диапазон дат из раскрывающегося списка и нажав кнопку "Ввод!".


*Определитесь, кто Вы:
робот инопланетянин человек

Внимание! Время в таблицах - всемирное. Для получения местного времени необходимо прибавить поправку, которая равна 7 ч.

Смотрите также архив погоды в соседних городах и на ближайших метеорологических станциях:

Погода в Северо-Енисейском (Красноярский край, Россия) (74 км)
Погода в Кузьмовке (Эвенкия, Россия) (160 км)
Погода в Байките (Эвенкия, Россия) (173 км)
Погода в Ярцево (Красноярский край, Россия) (192 км)
Погода в Бору (Красноярский край, Россия) (193 км)
Погода в Ворогово (Красноярский край, Россия) (204 км)
Погода в Назимово (Красноярский край, Россия) (215 км)
Погода в Усть-Камо (Эвенкия, Россия) (224 км)
Погода в Бахте (Красноярский край, Россия) (283 км)
Погода в Сыме (Красноярский край, Россия) (285 км)

Пояснения к столбцам:

Ветер - указаны скорость ветра в м/с - средняя за 10 мин, порывы в срок и между сроками (в фигурных скобках) и направление, откуда дует ветер: С - северный, СВ - северо-восточный, В - восточный, ЮВ - юго-восточный, Ю - южный, ЮЗ - юго-западный, З - западный, СЗ - северо-западный.
Видимость - горизонтальная дальность видимости в метрах или километрах. При видимости от 1 до 10 км при отсутствии осадков обычно наблюдается дымка, при ухудшении видимости до 1 км и менее - туман. В сухую погоду видимость может ухудшаться дымом, пылью или мглою.
Явления - указаны атмосферные явления, наблюдавшиеся в срок или в последний час перед сроком; фигурными скобками обозначены явления, наблюдавшиеся между сроками (за 1-3 часа до срока); квадратными скобками обозначены град или гололедные отложения с указанием их диаметра в мм.
Облачность - указаны через наклонную черту общая и нижняя облачность в баллах и высота нижней границы облаков в метрах; квадратными скобками обозначены формы облаков: Ci - перистые, Cs - перисто-слоистые, Cc - перисто-кучевые, Ac - высококучевые, As - высокослоистые, Sc - слоисто-кучевые, Ns - слоисто-дождевые, Cu - кучевые, Cb - кучево-дождевые. Подробнее классификацию облаков см. в Атласе облаков (PDF).
T - Температура воздуха - температура, измеренная на высоте 2 м над землей.
Td - Температура точки росы - температура, при понижении до которой содержащийся в воздухе водяной пар достигнет насыщения.
f - Относительная влажность воздуха - влажноcть воздуха, измеренная на высоте 2 м над землей.
Te - Эффективная температура - температура, которую ощущает одетый по сезону человек в тени. Характеристика душности погоды. При расчете учитывается влияние влажности воздуха и скорости ветра на теплоощущения человека.
Tes - Эффективная температура на солнце - температура, которую ощущает человек, с поправкой на солнечный нагрев. Характеристика знойности погоды. Зависит от высоты солнца над горизонтом, облачности и скорости ветра. Ночью, в пасмурную погоду, а также при ветре 12 м/с и более поправка равна нулю.
P - Атмосферное давление - приведенное к уровню моря атмосферное давление.
Po - Атмосферное давление - измеренное на уровне метеостанции атмосферное давление.
Tmin - Минимальная температура - минимум температуры воздуха на высоте 2 м над землей.
Tmax - Максимальная температура - максимум температуры воздуха на высоте 2 м над землей.
R - Количество осадков - Количество выпавших осадков за период времени, мм. При наведении курсора мыши на число - период времени, за который выпало указанное количество осадков.
R24 - Количество осадков - Количество выпавших осадков за 24 часа, мм.
S - Снежный покров - Высота снежного покрова, см. При наведении курсора мыши на число - состояние снежного покрова и степень покрытия местности в баллах.